Racine, WI

11:13 PM CDT on August 16, 2017 (GMT -0500)
Batten

Weather History for KRAC - January, 2014

Change the Weather History Date:

Friday, January 3, 2014

  Actual Average Record
Temperature  
Mean Temperature 6 °F -  
Max Temperature 19 °F 28 °F 51 °F (1950)
Min Temperature -7 °F 13 °F -13 °F (1979)
Degree Days  
Heating Degree Days 59    
Moisture  
Dew Point -2 °F    
Average Humidity 69    
Maximum Humidity 79    
Minimum Humidity 58    
Precipitation  
Precipitation 0.00 in - - ()
Sea Level Pressure  
Sea Level Pressure 30.26 in    
Wind  
Wind Speed 10 mph (SW)    
Max Wind Speed 24 mph    
Max Gust Speed 33 mph    
Visibility 8 miles    
Events      
Averages and records for this station are not official NWS values.
T = Trace of Precipitation, MM = Missing Value Source: NWS Daily Summary

Daily Weather History Graph

Daily Weather History Graph

Search for Another Location

Airport or City:

Trip Planner

Search our weather history database for the weather conditions in past years. The results will help you decide how hot, cold, wet, or windy it might be!

Date:

Astronomy

Jan. 03, 2014 Rise Set
Actual Time 7:21 AM CST 4:29 PM CST
Civil Twilight 6:49 AM CST 5:01 PM CST
Nautical Twilight 6:14 AM CST 5:37 PM CST
Astronomical Twilight 5:40 AM CST 6:11 PM CST
Moon 8:43 AM CST (1/3) 7:43 PM CST (1/3)
Length of Visible Light 10h 12m
Length of Day
9h 08m
Waxing Crescent, 8% of the Moon is Illuminated
Jan 3
Waxing Crescent
Jan 7
First Quarter
Jan 15
Full
Jan 23
Last Quarter
Jan 30
New

Hourly Weather History & Observations

Time (CST) Temp. Windchill Dew Point Humidity Pressure Visibility Wind Dir Wind Speed Gust Speed Precip Events Conditions
12:53 AM -0.9 °F -14.1 °F -9.9 °F 66% 30.43 in 10.0 mi NW 6.9 mph - N/A   Clear
1:53 AM -2.0 °F -17.7 °F -9.9 °F 69% 30.44 in 10.0 mi WNW 9.2 mph - N/A   Clear
2:53 AM -2.9 °F -17.7 °F -9.9 °F 72% 30.45 in 10.0 mi WNW 8.1 mph - N/A   Clear
3:53 AM -2.9 °F -16.5 °F -9.9 °F 72% 30.44 in 10.0 mi WNW 6.9 mph - N/A   Clear
4:53 AM -4.0 °F -20.2 °F -11.0 °F 72% 30.44 in 10.0 mi West 9.2 mph - N/A   Clear
5:53 AM -6.0 °F -20.1 °F -11.0 °F 79% 30.44 in 10.0 mi West 6.9 mph - N/A   Clear
6:53 AM -7.1 °F -21.4 °F -11.9 °F 79% 30.43 in 10.0 mi West 6.9 mph - N/A   Clear
7:53 AM -6.0 °F -22.6 °F -11.0 °F 79% 30.44 in 9.0 mi West 9.2 mph - N/A   Clear
8:23 AM -4.0 °F -16.3 °F -9.9 °F 76% 30.37 in 1.8 mi West 5.8 mph - N/A   Haze
8:32 AM -2.9 °F -13.3 °F -9.9 °F 72% 30.36 in 3.0 mi SW 4.6 mph - N/A   Haze
8:53 AM -2.0 °F -13.9 °F -9.0 °F 72% 30.42 in 10.0 mi SW 5.8 mph - N/A   Clear
9:53 AM 3.9 °F -13.0 °F -8.0 °F 58% 30.42 in 10.0 mi SSW 12.7 mph - N/A   Partly Cloudy
10:53 AM 7.0 °F -9.8 °F -5.1 °F 58% 30.38 in 10.0 mi SW 13.8 mph - N/A   Overcast
11:53 AM 10.0 °F -4.5 °F -0.9 °F 61% 30.34 in 10.0 mi SSW 11.5 mph - N/A   Overcast
12:53 PM 12.9 °F -2.2 °F 1.9 °F 62% 30.28 in 10.0 mi SSW 13.8 mph - N/A   Overcast
1:53 PM 12.9 °F -2.8 °F 3.0 °F 65% 30.24 in 10.0 mi South 15.0 mph 21.9 mph N/A   Scattered Clouds
2:53 PM 14.0 °F -1.4 °F 3.9 °F 64% 30.19 in 8.0 mi South 15.0 mph 25.3 mph N/A   Mostly Cloudy
3:53 PM 15.1 °F 1.1 °F 6.1 °F 68% 30.15 in 5.0 mi South 12.7 mph 25.3 mph N/A   Haze
4:53 PM 16.0 °F -0.9 °F 7.0 °F 68% 30.11 in 5.0 mi South 19.6 mph 29.9 mph N/A   Haze
5:53 PM 16.0 °F 1.1 °F 7.0 °F 68% 30.08 in 7.0 mi South 15.0 mph 26.5 mph N/A   Clear
6:53 PM 16.0 °F 0.6 °F 6.1 °F 65% 30.04 in 7.0 mi South 16.1 mph 25.3 mph N/A   Clear
7:53 PM 17.1 °F -1.0 °F 8.1 °F 68% 30.01 in 3.0 mi South 24.2 mph 33.4 mph 0.00 in   Clear
8:53 PM 18.0 °F 0.9 °F 9.0 °F 68% 29.96 in 4.0 mi South 21.9 mph 33.4 mph 0.00 in   Haze
9:53 PM 19.0 °F 4.5 °F 10.0 °F 68% 29.94 in 6.0 mi South 16.1 mph 33.4 mph 0.00 in   Haze
10:53 PM 19.0 °F 5.0 °F 10.0 °F 68% 29.94 in 10.0 mi SSW 15.0 mph 28.8 mph N/A   Clear
11:53 PM 19.9 °F 5.7 °F 10.9 °F 68% 29.90 in 10.0 mi SSW 16.1 mph 29.9 mph N/A   Clear